Location: Battersea Observatory
(44.4318°N, 76.3841°W)
Time: 21:51:30
(UTC-04:00)

Tiros 1 despin weight - Pass Details

Date: 29 January 2022
Orbit: 592 x 639 km, 48.2° (Epoch: 25 May)

Event Time Altitude Azimuth Distance (km) Brightness Sun altitude
Rises 15:30:35 0° 235° (SW) 2,845 ? 14.0°
Reaches altitude 10° 15:32:52 10° 232° (SW) 1,952 ? 13.7°
Maximum altitude 15:37:18 63° 152° (SSE) 687 ? 13.1°
Drops below altitude 10° 15:41:50 10° 71° (ENE) 1,992 ? 12.5°
Sets 15:44:11 0° 68° (ENE) 2,909 ? 12.2°
